Wind_Speed
24 24 24 25 26 26 27 27 26 27 28 29 31 31 30 29 29 30 31 32 34 34 34 33 31 29 28 28 26 23 21 21 20 20 20 18 16 15 14 13 12 12
23 22 23 24 26 26 27 27 26 28 29 30 32 32 32 31 30 31 32 32 33 34 35 34 32 29 27 27 27 24 23 23 21 21 20 19 17 16 15 14 14 13
22 22 22 24 25 26 26 27 27 28 29 30 32 34 33 33 33 33 32 32 32 33 34 34 32 30 29 28 27 25 24 23 22 21 20 18 17 16 15 15 14 14
22 22 22 23 24 25 27 27 27 27 28 30 32 33 34 34 34 33 33 33 33 33 33 33 32 32 31 30 29 27 25 23 22 22 21 19 18 17 17 16 15 15
22 22 21 22 23 25 26 28 28 28 28 30 30 31 33 34 34 33 33 33 33 33 32 31 32 32 32 31 31 29 27 25 24 23 22 20 19 18 18 17 17 16
22 22 21 22 23 24 26 27 29 29 28 29 29 30 32 33 33 34 33 32 33 34 33 31 31 31 31 31 32 31 29 27 26 25 24 24 22 20 19 19 18 17
22 23 22 22 22 24 25 27 28 29 28 28 29 29 30 32 33 34 34 33 33 33 33 32 31 31 31 30 31 32 31 29 28 27 26 26 24 22 21 20 19 19
21 22 23 22 22 23 25 26 28 29 28 28 29 29 30 32 33 34 34 34 34 33 33 32 30 30 30 30 30 30 30 30 28 28 26 25 24 23 22 21 21 20
19 22 23 23 22 23 25 26 28 28 27 27 29 29 30 32 32 33 34 35 35 33 32 32 31 30 30 30 30 29 29 28 27 26 25 24 24 23 22 22 22 21
18 21 23 23 23 23 24 26 27 27 26 27 29 29 29 31 32 33 33 33 33 32 32 33 32 30 30 31 30 28 27 27 26 26 25 24 23 22 22 22 22 22
17 18 20 21 22 22 23 25 26 26 25 27 29 27 26 27 29 31 32 31 30 30 30 32 31 30 30 31 31 29 27 26 26 26 25 24 23 23 22 22 22 22
16 16 18 19 20 21 22 22 24 24 23 25 27 25 25 26 27 29 30 28 28 28 29 29 29 30 30 30 31 30 28 27 27 26 25 24 23 22 22 22 22 22
14 14 15 16 17 19 21 21 22 23 23 25 26 26 27 27 27 27 28 27 27 27 27 27 27 28 29 29 30 29 28 27 26 25 24 23 22 21 21 22 23 23
11 11 12 13 15 18 20 20 21 22 23 24 25 26 26 23 22 24 25 26 26 27 27 26 26 27 28 28 29 28 28 27 25 24 23 23 22 22 22 23 23 24
8 9 11 12 14 17 19 18 20 22 23 23 24 25 23 19 18 22 24 24 25 25 26 26 26 26 27 28 28 27 27 27 25 23 23 23 22 22 22 22 22 23
7 8 10 12 14 16 18 19 22 24 23 23 24 24 21 18 18 21 22 22 23 23 25 26 27 27 27 27 26 26 26 26 24 24 23 23 22 22 23 22 22 21
7 8 10 12 14 16 18 20 23 22 21 23 24 21 18 17 18 20 20 21 21 22 23 25 26 26 27 27 26 25 25 24 24 24 23 22 22 22 22 21 21 21
7 8 10 12 14 16 17 20 22 20 19 20 19 17 16 17 18 19 19 20 20 21 22 24 24 25 26 27 26 25 25 24 25 25 23 22 22 22 21 21 21 22
8 9 10 11 12 14 16 18 18 18 18 17 16 15 16 17 17 18 18 18 19 19 21 22 22 23 25 26 26 25 25 24 25 25 23 22 22 22 22 22 22 23
7 6 8 10 10 12 14 15 15 14 14 15 16 17 17 17 17 18 17 17 18 19 20 21 22 23 24 25 25 26 25 24 25 25 24 23 23 23 22 22 22 23
6 6 8 9 10 12 13 14 14 14 14 14 16 17 17 17 17 17 16 16 17 18 19 19 21 23 24 25 26 26 25 24 24 25 25 25 25 24 23 23 23 23
8 8 9 10 11 12 12 12 13 15 15 15 15 15 15 15 17 18 18 18 18 18 19 19 18 20 22 24 25 25 25 25 25 25 26 26 26 26 25 25 25 25
10 10 10 10 11 12 12 13 13 14 15 16 16 16 15 16 18 19 19 20 19 20 20 20 20 21 22 24 24 25 25 26 26 26 27 27 28 28 28 28 28 28
8 10 9 9 10 12 13 14 13 13 14 15 17 18 18 19 20 20 20 20 20 20 21 21 21 22 23 24 25 25 26 26 26 26 27 29 30 31 31 30 30 30
6 9 9 9 11 13 14 14 14 14 14 14 16 18 19 21 21 20 21 21 21 21 22 22 22 23 24 24 25 26 26 27 27 27 29 31 32 33 33 32 32 31
5 7 8 10 12 14 15 15 14 14 14 15 16 17 19 20 21 21 22 22 22 22 23 24 24 24 25 26 27 28 28 28 29 30 32 33 33 34 35 34 34 33
Wind_Direction
221 224 225 223 223 223 222 222 220 219 219 217 215 214 214 210 208 209 208 209 210 211 211 212 212 210 210 212 213 213 214 213 215 217 218 219 223 226 227 231 237 239
225 227 228 226 224 223 223 223 221 221 223 222 220 217 213 211 211 211 210 210 212 213 213 214 214 213 212 216 217 216 218 216 216 221 222 221 224 226 226 228 233 237
227 229 231 230 227 225 225 226 224 222 221 220 222 220 214 211 212 213 212 211 213 215 216 215 216 216 216 218 220 220 221 219 219 223 222 221 222 223 225 228 230 233
227 230 231 231 231 227 225 225 225 222 218 215 218 218 214 212 212 213 213 213 213 215 216 216 216 218 219 220 221 222 224 222 220 222 223 221 221 222 226 229 230 233
229 232 232 231 231 227 224 224 222 219 216 215 217 217 215 213 212 212 214 212 212 215 216 216 217 218 220 222 223 224 225 224 223 225 227 226 225 226 229 231 233 236
230 232 230 228 228 226 225 224 222 220 217 216 219 219 215 214 213 213 214 212 212 215 215 215 217 219 221 223 224 224 225 226 227 229 230 230 230 230 232 235 237 238
227 228 228 227 227 227 227 225 223 223 220 217 219 220 217 215 214 213 212 212 213 214 216 217 218 220 222 223 223 224 225 227 229 230 230 232 234 234 234 236 239 240
227 226 226 227 227 227 226 224 223 224 222 217 215 218 220 217 214 213 212 212 214 215 217 220 220 221 222 222 223 223 224 226 228 231 232 233 235 237 237 237 239 241
227 226 226 226 227 226 224 222 222 223 222 218 214 215 219 217 213 214 213 212 214 216 219 222 222 222 222 222 222 222 222 223 225 230 232 233 234 236 237 238 240 241
227 226 223 223 225 223 221 220 219 217 216 217 216 211 210 210 208 211 213 214 215 217 220 224 225 224 223 223 222 221 221 222 225 229 232 232 233 235 237 240 243 242
229 229 224 223 226 223 219 220 219 214 211 216 217 211 208 208 205 209 213 214 216 218 221 225 226 225 225 224 223 222 223 224 226 230 232 232 232 236 239 242 245 246
229 229 226 221 221 219 215 216 218 214 211 215 216 215 218 214 207 209 213 214 215 217 222 226 226 225 225 223 223 223 225 227 228 230 232 233 234 236 241 246 249 249
228 223 223 218 212 211 211 211 213 212 211 214 216 217 217 209 203 209 214 215 216 218 222 225 226 225 224 223 223 224 225 227 228 229 232 235 237 239 244 250 254 252
234 222 222 220 213 211 211 208 209 214 216 216 217 219 215 204 201 210 216 217 218 220 223 225 228 227 225 225 225 225 225 227 229 230 232 237 240 243 248 252 254 250
230 220 216 217 213 210 207 204 208 213 214 212 212 216 215 208 207 213 218 220 220 221 224 226 229 229 227 226 226 225 225 226 229 231 234 238 243 249 254 254 250 247
218 219 217 213 209 205 204 207 209 205 202 205 208 209 209 206 209 215 220 222 221 223 225 227 228 228 226 226 227 227 228 228 231 233 236 241 247 254 258 254 249 247
213 216 214 209 206 204 205 212 211 198 195 207 209 204 203 206 210 216 220 221 222 224 225 226 229 228 226 226 227 229 231 232 234 236 238 242 250 256 255 250 249 250
206 205 204 204 207 208 210 216 212 197 194 207 209 203 203 209 214 218 219 220 222 223 223 225 227 228 227 225 225 230 233 234 237 239 240 244 250 254 251 247 248 249
207 198 198 202 208 212 215 221 219 207 200 204 207 210 212 213 217 221 221 222 223 221 220 221 223 224 225 224 225 229 234 235 237 238 241 245 248 250 249 250 250 250
215 203 205 208 213 219 224 227 227 223 217 211 209 213 217 219 222 223 223 224 226 222 218 217 219 222 224 226 227 230 234 236 236 237 239 244 247 248 250 252 253 254
217 215 219 214 217 224 226 226 226 226 227 225 219 215 215 217 222 227 229 230 231 230 225 220 219 222 224 225 228 230 232 234 236 238 241 244 248 250 252 255 257 259
229 227 230 228 228 228 224 222 226 225 223 226 228 225 220 222 226 229 231 230 231 232 232 229 226 226 228 229 232 234 234 231 232 237 242 246 249 252 255 258 261 262
232 229 232 237 239 235 226 223 228 230 225 225 230 231 228 229 230 230 230 230 230 232 234 234 231 231 233 235 237 239 238 235 234 236 241 245 248 250 253 255 258 259
229 230 233 238 236 234 232 227 227 233 234 232 234 235 234 233 232 232 232 232 234 237 239 239 237 237 240 241 243 244 244 243 241 241 242 245 248 250 252 253 255 257
246 241 236 229 221 225 234 235 233 236 238 238 239 240 240 239 238 238 237 236 237 239 242 242 240 242 243 244 246 248 249 248 246 245 246 247 248 251 253 255 255 256
275 252 233 221 215 219 229 235 240 244 244 244 244 242 240 239 240 242 243 244 245 245 247 247 245 245 246 246 246 248 249 250 249 248 249 250 250 251 254 256 257 256
Height
3160 3162 3163 3165 3167 3168 3169 3171 3174 3176 3178 3180 3181 3183 3185 3187 3189 3191 3193 3196 3198 3200 3201 3203 3205 3207 3209 3210 3212 3214 3215 3216 3218 3219 3221 3222 3223 3225 3226 3227 3228 3229
3158 3159 3161 3163 3165 3167 3168 3169 3171 3173 3176 3178 3179 3181 3183 3186 3188 3189 3191 3194 3196 3198 3199 3201 3204 3206 3208 3209 3211 3212 3214 3215 3217 3218 3219 3220 3221 3223 3224 3226 3227 3228
3155 3157 3159 3160 3163 3165 3166 3167 3169 3170 3173 3176 3178 3179 3181 3184 3186 3187 3190 3192 3194 3196 3197 3200 3202 3204 3206 3207 3209 3211 3212 3214 3215 3217 3218 3219 3220 3222 3223 3224 3226 3227
3154 3155 3157 3158 3160 3162 3164 3165 3167 3168 3170 3173 3175 3178 3180 3182 3184 3186 3188 3190 3192 3194 3196 3198 3200 3202 3204 3206 3208 3209 3211 3212 3214 3215 3216 3217 3218 3220 3222 3223 3224 3225
3152 3154 3155 3157 3158 3160 3161 3163 3165 3166 3169 3171 3172 3175 3178 3180 3182 3184 3186 3188 3190 3192 3193 3196 3198 3200 3202 3204 3206 3208 3209 3211 3212 3213 3214 3215 3217 3219 3220 3221 3222 3223
3150 3152 3154 3155 3156 3158 3159 3161 3162 3164 3167 3168 3170 3172 3175 3178 3180 3182 3184 3186 3188 3190 3191 3194 3196 3198 3200 3202 3204 3206 3207 3209 3210 3211 3212 3214 3215 3217 3218 3219 3220 3221
3149 3150 3152 3153 3154 3155 3157 3158 3160 3162 3164 3166 3167 3170 3173 3175 3178 3180 3182 3184 3186 3188 3190 3192 3194 3196 3198 3200 3202 3204 3205 3207 3208 3209 3211 3212 3214 3215 3216 3218 3219 3219
3147 3149 3150 3151 3152 3153 3154 3156 3158 3160 3162 3164 3166 3169 3171 3173 3176 3178 3180 3182 3184 3186 3188 3190 3192 3194 3196 3198 3200 3202 3203 3205 3206 3207 3209 3210 3212 3213 3215 3216 3217 3218
3146 3147 3148 3149 3150 3151 3152 3154 3157 3158 3160 3162 3165 3168 3170 3171 3174 3176 3178 3180 3182 3185 3187 3189 3191 3193 3194 3196 3198 3200 3201 3203 3205 3206 3207 3209 3210 3211 3213 3214 3214 3215
3143 3144 3146 3147 3148 3148 3150 3153 3155 3157 3159 3160 3163 3166 3168 3170 3172 3174 3176 3178 3181 3183 3185 3187 3189 3191 3193 3194 3196 3198 3200 3202 3203 3204 3205 3207 3208 3209 3210 3211 3212 3213
3141 3142 3143 3145 3146 3147 3149 3151 3153 3155 3158 3160 3161 3162 3165 3167 3169 3172 3174 3177 3179 3182 3183 3185 3187 3189 3191 3193 3194 3196 3198 3200 3201 3202 3203 3205 3206 3207 3208 3209 3210 3211
3139 3140 3141 3143 3145 3146 3147 3149 3151 3154 3157 3159 3159 3161 3163 3165 3168 3170 3173 3175 3178 3180 3182 3183 3185 3187 3189 3191 3192 3194 3196 3198 3199 3200 3201 3203 3204 3205 3206 3207 3208 3209
3139 3139 3139 3141 3142 3144 3145 3147 3150 3152 3154 3156 3158 3160 3162 3164 3166 3169 3171 3174 3176 3178 3180 3182 3184 3186 3187 3189 3190 3192 3194 3196 3197 3198 3199 3201 3202 3203 3205 3205 3206 3207
3137 3137 3137 3139 3141 3143 3144 3146 3148 3151 3153 3154 3156 3158 3160 3161 3164 3167 3169 3172 3174 3176 3178 3180 3182 3183 3185 3187 3188 3190 3192 3194 3195 3196 3197 3199 3200 3201 3202 3203 3204 3204
3136 3136 3137 3138 3140 3142 3143 3145 3147 3149 3151 3153 3154 3156 3158 3159 3162 3165 3168 3170 3172 3174 3176 3178 3179 3181 3183 3185 3186 3188 3190 3191 3193 3194 3195 3197 3198 3198 3199 3201 3201 3202
3135 3136 3137 3139 3140 3141 3143 3144 3145 3148 3151 3152 3154 3155 3156 3158 3161 3164 3166 3168 3169 3171 3173 3175 3177 3178 3180 3182 3185 3186 3188 3189 3190 3192 3193 3194 3195 3196 3197 3198 3199 3199
3135 3136 3137 3138 3139 3140 3141 3141 3142 3147 3150 3152 3153 3154 3154 3157 3160 3162 3164 3166 3167 3169 3170 3172 3174 3176 3178 3180 3182 3184 3186 3187 3188 3189 3191 3192 3193 3194 3195 3196 3196 3197
3135 3135 3136 3138 3139 3140 3140 3139 3140 3145 3148 3149 3151 3151 3152 3156 3159 3161 3162 3164 3165 3166 3167 3169 3171 3173 3175 3177 3179 3181 3183 3184 3185 3186 3188 3189 3190 3191 3192 3193 3194 3195
3135 3135 3136 3138 3139 3139 3140 3140 3142 3145 3146 3147 3149 3151 3153 3156 3158 3160 3161 3162 3163 3165 3165 3167 3169 3171 3172 3174 3177 3179 3180 3182 3183 3184 3185 3186 3186 3188 3189 3190 3191 3192
3133 3134 3136 3138 3139 3140 3141 3142 3145 3147 3147 3147 3149 3152 3153 3155 3157 3159 3161 3161 3162 3163 3164 3165 3167 3168 3170 3172 3174 3176 3178 3179 3180 3181 3182 3183 3184 3185 3186 3187 3188 3189
3133 3135 3137 3138 3140 3141 3142 3143 3145 3147 3148 3148 3150 3152 3153 3155 3156 3158 3159 3160 3161 3162 3163 3164 3165 3167 3168 3170 3171 3173 3175 3176 3177 3178 3179 3180 3181 3182 3183 3184 3185 3186
3134 3136 3137 3138 3139 3141 3143 3143 3144 3145 3146 3147 3149 3151 3152 3154 3155 3156 3157 3159 3160 3161 3162 3163 3164 3166 3167 3168 3169 3170 3172 3173 3174 3175 3176 3177 3178 3179 3180 3181 3182 3183
3134 3135 3137 3137 3138 3139 3141 3143 3143 3144 3145 3146 3147 3149 3150 3152 3154 3155 3156 3156 3157 3159 3160 3161 3163 3164 3165 3166 3167 3168 3169 3171 3172 3172 3173 3174 3175 3176 3177 3178 3179 3180
3133 3134 3135 3136 3137 3138 3139 3141 3143 3144 3144 3145 3146 3147 3149 3150 3152 3153 3154 3154 3155 3156 3158 3159 3160 3161 3162 3164 3165 3166 3167 3169 3169 3169 3170 3171 3172 3173 3174 3175 3176 3177
3133 3133 3134 3135 3136 3137 3138 3140 3141 3142 3143 3144 3145 3146 3147 3148 3149 3150 3151 3152 3153 3154 3155 3157 3158 3158 3159 3160 3161 3162 3163 3165 3165 3165 3166 3167 3168 3169 3170 3171 3172 3173
3133 3132 3133 3134 3135 3136 3137 3138 3138 3139 3140 3141 3143 3143 3144 3145 3146 3147 3148 3150 3151 3152 3153 3154 3155 3156 3157 3157 3158 3159 3160 3160 3161 3161 3162 3163 3164 3165 3166 3167 3168 3169